Flag for U.S.A. Weather past 2 weeks in Little Rock, Arkansas, U.S.A.

Now
68 °F

Overcast.


Feels Like: 68 °F
Forecast: 67 / 85 °F
Wind: No wind

Location: Adams Field

Current Time: May 29, 2015 at 4:24:00 AM

Latest Report: May 29, 2015 at 3:53 AM


Visibility: 7 mi

Pressure: 30.01 "Hg

Humidity: 87%

Dew point: 64 °F

Location of Little RockLocation

Historic Weather in Little Rock — Graph

°F

Little Rock temperature yesterday

Maximum temperature yesterday: 83 °F (at 12:53 PM)
Minimum temperature yesterday: 69 °F (at 11:53 PM)
Average temperature yesterday: 74 °F

Past Weeks' High & Low Weather Summary

 TemperatureHumidityPressure
High85 °F (May 17, 4:53 PM)91% (May 16, 8:53 AM)30.32 "Hg (May 16, 8:53 AM)
Low52 °F (May 22, 3:53 AM)44% (May 22, 3:53 PM)29.85 "Hg (May 26, 2:53 AM)
Average72 °F74%30.07 "Hg
* Reported May 14 2:53 AM — May 29 2:53 AM, Little Rock, Weather by CustomWeather, © 2015

Note: Actual official high and low records may vary slightly from our data, if they occured in-between our weather recording intervals... More about our weather records

Advertising

Little Rock weather history for previous 24 hours

 ConditionsComfort  
Time TempWeatherWind HumidityBarometerVisibility
2:53 AM
Fri, May 29
68 °FHigh level clouds.No wind90%30.01 "Hg7 mi
1:53 AM68 °FHigh level clouds.3 mph90%30.01 "Hg7 mi
12:53 AM69 °FPassing clouds.No wind87%30.04 "Hg10 mi
11:53 PM
Thu, May 28
69 °FPassing clouds.No wind87%30.06 "Hg10 mi
10:53 PM70 °FPassing clouds.No wind84%30.06 "Hg10 mi
9:53 PM70 °FPassing clouds.No wind84%30.03 "Hg7 mi
8:53 PM70 °FPartly sunny.3 mph87%30.03 "Hg10 mi
7:53 PM72 °FOvercast.3 mph81%30.03 "Hg10 mi
6:53 PM73 °FMore clouds than sun.6 mph76%30.03 "Hg10 mi
5:53 PM73 °FMore clouds than sun.5 mph76%30.03 "Hg10 mi
4:53 PM74 °FCloudy.5 mph76%30.07 "Hg10 mi
3:53 PM77 °FThunderstorms. Cloudy.6 mph58%30.10 "Hg7 mi
2:53 PM83 °FBroken clouds.6 mph59%30.10 "Hg10 mi
1:53 PM83 °FBroken clouds.7 mph55%30.11 "Hg10 mi
12:53 PM83 °FBroken clouds.12 mph57%30.11 "Hg10 mi
11:53 AM81 °FBroken clouds.6 mph60%30.14 "Hg10 mi
10:53 AM80 °FBroken clouds.10 mph62%30.13 "Hg10 mi
9:53 AM77 °FPartly sunny.3 mph71%30.14 "Hg10 mi
8:53 AM74 °FOvercast.7 mph79%30.12 "Hg10 mi
7:53 AM72 °FMostly cloudy.6 mph87%30.12 "Hg7 mi
6:53 AM71 °FFog.5 mph87%30.11 "Hg3 mi
5:53 AM70 °FFog.No wind90%30.12 "Hg0 mi
5:10 AM72 °FFog.6 mph88%30.11 "Hg0 mi
4:53 AM71 °FFog.7 mph90%30.10 "Hg1 mi
Weather by CustomWeather, © 2015

See weather overviewHow to use our weather pages